Location: St. Louis
(38.6270°N, 90.1994°W)
Time: 11:38:12
(UTC-06:00)

Altair - Pass Details

Date: 05 December 2021
Orbit: 1501 x 1683 km, 47.2° (Epoch: 25 January)

Event Time Altitude Azimuth Distance (km) Brightness Sun altitude
Rises 21:00:13 0° 300° (WNW) 4,668 10.6 -50.2°
Reaches altitude 10° 21:03:16 10° 299° (WNW) 3,671 9.9 -50.7°
Enters shadow 21:07:07 29° 297° (WNW) 2,480 8.8 -51.5°
Maximum altitude 21:12:28 80° 215° (SW) 1,523 - -52.5°
Drops below altitude 10° 21:21:38 10° 130° (SE) 3,661 - -54.2°
Sets 21:24:40 0° 129° (SE) 4,654 - -54.8°
